Vertical_Velocity
-2 -0 -1 -0 0 -1 -1 -1 -2 -3 -1 -0 -2 1 -2 1 0 0 -0 -1 -1 -2 0 -1 1 -0 -1 1 -0 2 1 3 -3 3 -3 0 1 1 1 3 -3 -2 0
-2 -1 -0 -2 0 -1 1 0 1 -2 -2 1 1 -1 1 0 -2 -1 -1 1 1 0 -2 -3 -0 -1 2 1 -0 2 0 -1 -0 2 -0 1 1 1 -1 -2 2 1 0
-0 -2 1 -2 -2 -1 1 0 0 1 0 -1 -2 -0 -1 -2 -2 -1 -0 -2 -0 -2 -1 -0 -2 -1 -1 -2 -2 1 1 1 0 2 -3 0 3 3 -1 -2 -3 -1 2
-0 -2 0 -1 -2 -2 -1 -0 -0 1 0 1 1 -1 -2 -2 -1 -2 -2 -2 -1 1 2 1 4 -2 1 -1 -3 -1 1 -2 0 1 1 0 -0 2 1 -1 0 1 3
-1 0 -0 -0 0 -0 -0 -1 -1 -2 -1 -2 -1 -0 1 0 -1 -2 0 2 1 -2 2 -4 2 -1 -1 4 1 2 0 -1 0 -1 -2 0 0 1 1 2 -1 1 -1
-2 1 0 -0 -2 -0 1 -1 -0 0 -0 -0 -1 -0 0 -0 2 1 -2 -4 -1 1 -4 1 0 1 0 -4 1 1 2 1 -3 -3 -1 -2 2 -2 0 -2 3 2 1
-2 -0 1 -0 1 -2 0 0 0 3 -1 -0 0 -1 0 -0 -2 -3 -1 0 -1 -0 -4 1 -1 -1 -1 2 -2 1 -0 -1 0 0 -7 3 -2 1 -0 0 -2 -0 -0
-4 0 0 1 1 1 2 -0 -0 -0 3 -0 -1 -1 -2 -0 -0 0 -1 -2 -1 -0 2 -1 -1 -1 -3 -1 -0 1 0 1 -1 -6 4 -1 -0 -1 2 1 0 -1 -2
1 1 -1 1 -1 -2 0 1 1 1 -0 -0 -0 -1 -1 -1 -0 -0 -0 1 -0 -1 -1 -3 1 -0 1 -1 -0 -0 1 0 0 -3 1 1 1 -0 -2 2 1 0 2
0 -2 1 -1 -0 -3 -0 2 -1 0 1 2 0 0 1 -0 -0 -1 -0 -2 -1 -1 -1 -1 -3 -1 1 2 -2 -1 -1 1 -0 -1 -3 1 1 1 -2 -3 -1 -2 0
-4 1 0 1 -0 -4 0 3 -1 -0 0 -0 1 -1 -1 -0 1 -1 -1 -1 1 2 1 2 -1 -1 -1 0 2 -0 -1 -1 1 -1 2 0 1 -2 -0 1 -1 -2 -2
2 -0 -1 -0 -1 1 -0 1 -0 1 1 1 1 -1 0 -0 1 -0 -0 0 -3 -0 -1 2 2 1 -2 -0 2 1 1 -1 -1 -3 1 -0 -0 0 -1 -0 1 3 -0
0 0 2 -1 -1 2 -4 -2 -1 -2 1 -1 -2 -1 -1 -0 -2 -0 -0 0 0 -1 3 -1 2 1 1 0 1 1 1 -0 -0 -3 1 -1 -2 -3 0 1 0 -3 -2
-1 -1 1 -0 1 -1 -2 -2 1 -2 0 -1 -4 -1 0 1 -2 -2 1 -1 -1 -1 0 -0 2 -1 0 -0 1 -0 0 1 -2 -0 -3 2 0 -4 -4 -3 -1 1 -1
-1 -0 -1 -1 -0 -1 0 1 -1 1 -1 -1 -1 -1 -2 0 -1 -1 1 -1 -1 -2 3 -0 -1 -2 1 -0 2 1 -2 1 1 -1 -5 2 1 -1 1 -0 2 -1 -2
-1 0 -1 0 0 1 -1 -3 -2 -0 1 -4 -1 0 -2 2 0 -1 -1 0 -3 -3 -2 1 2 -1 -2 1 2 2 0 -0 0 -1 3 -3 0 3 -2 2 -1 -7 4
2 -0 0 1 -2 -4 -3 0 2 0 -1 0 0 -0 -2 1 0 1 -2 -0 -0 -3 1 -0 -1 0 1 0 -2 1 -1 2 1 4 0 3 -2 1 2 3 -4 3 1
-1 -0 -1 -2 4 2 1 -1 -2 -2 -1 -2 2 2 1 3 -0 -0 1 1 1 -3 -1 -1 -2 -0 0 1 1 -0 1 -1 2 2 1 -2 3 1 0 0 3 0 -2
0 2 3 3 1 -0 -1 1 0 -0 -0 0 0 0 -1 -2 -1 2 1 -3 -1 -1 -1 -0 -0 1 0 2 -0 1 -0 -1 -2 -0 2 1 2 -0 2 -0 -1 -0 1
1 2 3 3 2 1 1 1 1 1 1 0 1 0 -1 1 1 -1 -0 1 -0 0 -0 -1 0 -2 1 1 -1 -2 1 -1 2 -1 -1 -1 -1 1 1 1 0 1 0
1 0 -1 -1 0 1 0 0 1 2 1 0 0 0 1 0 -0 -1 -0 -1 -1 1 -1 0 -1 -2 1 -1 -1 1 1 0 -4 -1 -2 0 -0 -1 0 1 0 -0 1
-1 -1 0 1 -1 -1 -2 -1 -1 -0 1 2 2 1 1 1 1 1 1 -1 -2 -1 -2 -3 -3 -2 1 -1 3 -3 -4 -2 -1 2 1 -3 -1 -1 0 -1 0 2 2
1 -2 -2 -2 -1 -2 -2 -2 -1 -1 -1 -1 1 1 -0 -1 -1 -1 -1 -0 -0 -2 -2 -2 -1 2 -1 1 -3 -1 2 3 1 0 -1 0 -2 -1 -3 -2 -1 -2 -3
-0 -1 -1 1 -0 -1 -1 0 0 -0 -1 0 -0 0 0 -0 0 0 -1 -1 -2 -2 -2 -2 -2 -0 -2 -2 -2 -2 -0 -1 -3 -0 0 3 1 0 -2 -2 -2 -1 -1
-3 -1 -1 -2 -1 -0 1 1 -1 1 2 2 0 0 0 1 1 0 -0 -0 -1 -2 -2 -2 -3 -2 -2 -2 -3 -2 -2 -1 -1 -4 0 4 -0 1 -0 -1 0 -0 -2
-4 -3 -1 -1 -0 -1 -1 -0 -0 -2 2 2 3 2 2 2 2 1 -0 -1 -1 -2 -2 -2 -4 -3 -2 -2 -2 -2 -2 -3 -4 -3 -1 -2 -1 6 2 1 1 -2 -2
Height
3170 3170 3172 3173 3173 3174 3175 3176 3176 3176 3176 3176 3175 3175 3174 3174 3173 3173 3173 3173 3173 3172 3171 3171 3171 3171 3171 3171 3170 3170 3169 3168 3168 3168 3167 3167 3167 3167 3167 3167 3167 3166 3166
3169 3171 3171 3173 3173 3174 3175 3176 3176 3176 3177 3177 3176 3176 3176 3175 3175 3175 3174 3174 3173 3172 3172 3172 3171 3172 3172 3172 3172 3172 3171 3170 3170 3170 3169 3168 3169 3168 3168 3167 3167 3168 3167
3168 3170 3172 3173 3174 3174 3174 3176 3177 3177 3177 3178 3178 3177 3177 3177 3176 3176 3175 3175 3174 3173 3173 3172 3172 3172 3173 3173 3172 3172 3172 3171 3171 3170 3170 3169 3169 3168 3169 3168 3168 3168 3167
3168 3169 3172 3173 3173 3174 3175 3175 3177 3178 3178 3177 3178 3178 3178 3178 3178 3177 3177 3176 3175 3174 3174 3173 3173 3172 3172 3172 3172 3173 3172 3172 3172 3171 3172 3170 3169 3168 3168 3169 3168 3168 3167
3168 3169 3170 3172 3173 3174 3174 3175 3176 3177 3178 3178 3178 3178 3178 3179 3179 3178 3178 3177 3177 3176 3175 3174 3174 3173 3173 3172 3172 3172 3172 3171 3171 3171 3171 3171 3171 3169 3168 3168 3168 3167 3168
3168 3169 3169 3170 3172 3172 3173 3174 3175 3176 3176 3177 3177 3178 3178 3178 3177 3177 3177 3177 3177 3177 3176 3176 3174 3174 3173 3173 3172 3171 3171 3171 3170 3170 3170 3170 3170 3169 3169 3168 3168 3168 3167
3167 3168 3168 3168 3169 3170 3171 3172 3173 3174 3174 3175 3176 3176 3175 3175 3175 3176 3176 3175 3175 3175 3175 3175 3175 3174 3174 3173 3172 3172 3171 3170 3169 3169 3168 3170 3169 3168 3168 3168 3167 3167 3167
3166 3168 3168 3167 3167 3167 3169 3170 3171 3172 3174 3173 3173 3173 3173 3173 3173 3173 3173 3173 3173 3173 3172 3172 3172 3172 3173 3172 3172 3170 3170 3169 3168 3168 3169 3168 3168 3167 3167 3166 3166 3166 3166
3164 3166 3166 3166 3166 3166 3167 3168 3170 3170 3170 3171 3171 3171 3171 3171 3171 3171 3170 3170 3170 3170 3169 3169 3169 3169 3170 3170 3169 3169 3168 3168 3167 3166 3167 3166 3166 3166 3165 3165 3164 3164 3164
3163 3164 3164 3164 3164 3164 3165 3166 3167 3168 3169 3168 3168 3168 3168 3167 3167 3167 3166 3166 3166 3165 3165 3166 3166 3166 3166 3166 3166 3166 3166 3165 3165 3165 3165 3165 3164 3164 3163 3163 3162 3162 3162
3160 3161 3162 3162 3163 3163 3163 3164 3165 3165 3166 3166 3165 3165 3164 3163 3163 3162 3162 3162 3161 3161 3160 3160 3161 3162 3162 3162 3162 3162 3162 3163 3162 3161 3162 3162 3162 3161 3161 3160 3160 3160 3160
3158 3159 3160 3160 3161 3161 3161 3162 3162 3162 3161 3161 3160 3160 3159 3158 3158 3157 3157 3157 3156 3156 3155 3155 3155 3155 3156 3157 3158 3158 3158 3158 3159 3158 3159 3159 3159 3159 3158 3158 3157 3157 3156
3157 3157 3157 3157 3158 3158 3158 3158 3158 3158 3157 3156 3156 3155 3154 3154 3153 3152 3152 3151 3151 3150 3150 3150 3149 3149 3149 3150 3151 3152 3152 3153 3153 3153 3154 3154 3154 3153 3153 3154 3154 3154 3153
3154 3154 3154 3155 3155 3155 3155 3155 3154 3153 3152 3152 3151 3150 3150 3149 3148 3148 3147 3146 3146 3146 3145 3145 3145 3145 3145 3145 3145 3146 3146 3147 3147 3147 3146 3148 3149 3148 3149 3149 3149 3150 3150
3151 3151 3152 3152 3152 3151 3151 3150 3150 3149 3148 3147 3147 3146 3145 3145 3144 3143 3143 3142 3141 3142 3141 3141 3140 3139 3140 3140 3141 3140 3140 3141 3140 3141 3139 3143 3142 3142 3144 3144 3145 3145 3144
3147 3147 3148 3148 3148 3147 3146 3146 3146 3145 3144 3143 3142 3141 3141 3140 3140 3140 3139 3139 3138 3138 3138 3137 3136 3135 3135 3135 3135 3135 3135 3136 3136 3134 3133 3134 3134 3136 3136 3138 3138 3136 3141
3141 3142 3142 3142 3142 3142 3142 3141 3140 3139 3138 3137 3137 3137 3137 3136 3135 3135 3135 3134 3134 3134 3134 3133 3132 3132 3131 3131 3130 3130 3130 3130 3130 3130 3129 3128 3128 3128 3129 3129 3129 3130 3133
3136 3137 3136 3136 3136 3135 3135 3135 3134 3134 3133 3133 3133 3132 3133 3132 3131 3131 3130 3130 3130 3130 3129 3128 3127 3127 3126 3125 3125 3124 3124 3124 3124 3125 3123 3123 3123 3122 3122 3122 3122 3122 3123
3128 3128 3129 3129 3129 3129 3129 3129 3128 3128 3128 3128 3129 3128 3128 3127 3127 3126 3125 3125 3125 3125 3124 3124 3123 3122 3121 3121 3120 3119 3118 3119 3118 3118 3117 3117 3116 3117 3116 3115 3116 3115 3115
3121 3121 3122 3122 3122 3123 3122 3122 3122 3122 3123 3123 3124 3123 3123 3123 3122 3121 3121 3121 3120 3120 3119 3119 3118 3118 3116 3115 3114 3114 3113 3112 3112 3111 3111 3111 3110 3109 3109 3109 3108 3108 3107
3116 3116 3117 3118 3118 3117 3117 3116 3116 3117 3118 3118 3118 3118 3118 3118 3117 3116 3116 3115 3115 3114 3113 3113 3112 3112 3111 3109 3109 3107 3107 3106 3105 3105 3104 3102 3102 3101 3101 3101 3101 3101 3100
3115 3115 3115 3114 3114 3113 3113 3113 3113 3113 3113 3113 3113 3113 3113 3112 3111 3111 3110 3110 3109 3108 3107 3107 3107 3107 3106 3105 3104 3102 3102 3102 3100 3099 3097 3096 3095 3094 3093 3092 3092 3092 3092
3108 3107 3107 3107 3106 3106 3106 3107 3107 3108 3107 3107 3107 3107 3107 3107 3106 3105 3104 3103 3103 3101 3101 3101 3101 3100 3099 3098 3097 3098 3097 3096 3094 3093 3092 3090 3089 3087 3086 3086 3085 3084 3084
3103 3102 3101 3099 3099 3099 3099 3099 3100 3101 3102 3102 3102 3101 3101 3101 3100 3100 3099 3098 3096 3096 3096 3095 3094 3093 3092 3091 3092 3091 3090 3088 3086 3088 3086 3085 3083 3081 3079 3078 3077 3076 3076
3099 3097 3096 3094 3094 3093 3093 3093 3093 3094 3095 3095 3096 3096 3096 3095 3094 3093 3092 3091 3090 3089 3089 3088 3087 3085 3084 3084 3083 3082 3081 3080 3078 3078 3077 3077 3076 3074 3073 3071 3069 3068 3067
3094 3092 3090 3088 3087 3086 3086 3087 3088 3088 3088 3088 3088 3088 3088 3088 3087 3087 3086 3085 3084 3083 3082 3081 3080 3079 3077 3076 3075 3074 3072 3071 3069 3068 3067 3066 3066 3066 3066 3064 3062 3060 3060